Weather Roundup
Issued by NWS Corpus Christi, TX

Home | Current Version | Previous Version | Text Only | Print | Product List | Glossary On
Versions: 1 2 3 4 5 6 7 8 9 10 11 12 13 14 15 16 17 18 19 20 21 22 23 24 25 26 27 28 29 30 31 32 33 34 35 36 37 38 39 40 41 42 43 44 45 46 47 48 49 50
000
ASUS44 KCRP 221310
HRRCRP

SOUTH TEXAS REGIONAL WEATHER ROUNDUP
NATIONAL WEATHER SERVICE CORPUS CHRISTI TX
700 AM CST MON DEC 22 2014


TXZ229>244-221400-
...CORPUS CHRISTI AREA OBSERVATIONS...

CITY           SKY/WX    TMP DP  RH WIND       PRES   REMARKS
CORPUS CHRISTI MOCLDY    60  59  96 CALM      29.78F
NAS CORPUS CHR PTCLDY    59  59 100 SW3       29.79R
ROCKPORT       FOG       60  59  96 CALM      29.78R VSB 3/4
KINGSVILLE NAS FOG       57  57 100 SW6       29.79R VSB 1/4
ALICE          CLOUDY    62  59  90 S9        29.78R
FALFURRIAS     NOT AVBL
$$

...VICTORIA AREA OBSERVATIONS...

CITY           SKY/WX    TMP DP  RH WIND       PRES   REMARKS
VICTORIA       CLOUDY    61  59  93 SW8       29.77F FOG
BEEVILLE       CLOUDY    60  60 100 SW9       29.77S
PLEASANTON     CLOUDY    57  56  97 CALM      29.78S FOG
SAN ANTONIO    CLOUDY    58  54  86 SW7       29.77R
$$

...LAREDO AREA OBSERVATIONS...

CITY           SKY/WX    TMP DP  RH WIND       PRES   REMARKS
LAREDO         CLOUDY    77  55  47 W8        29.80
COTULLA        CLOUDY    58  54  86 CALM      29.79R
DEL RIO        CLOUDY    53  53 100 CALM      29.78R FOG
MCALLEN        CLOUDY    60  60 100 S6        29.80R
HEBBRONVILLE   HVY RAIN  57  56  97 S6        29.80R
$$

...OTHER TEXAS OBSERVATIONS...

CITY           SKY/WX    TMP DP  RH WIND       PRES   REMARKS
BROWNSVILLE    CLOUDY    62  61  96 SW8       29.80R FOG
HOUSTON        MOCLDY    58  57  97 VRB3      29.75F FOG
COL. STATION   CLOUDY    60  57  89 S15       29.72S
AUSTIN         CLOUDY    58  54  86 SW13G20   29.73R
WACO           MOCLDY    56  52  86 S17       29.64S
FORT WORTH     PTCLDY    50  47  89 S10       29.58F
WICHITA FALLS  CLEAR     44  38  79 W13       29.54R
LUBBOCK        PTCLDY    46  31  55 NW15      29.68R
EL PASO        MOCLDY    54  31  41 W8        29.90R
$$

...MARINE OBSERVATIONS...

STATION/POSITION TIME  SKY/WX   TEMP    WIND        PRES    VSBY  WAVE   SWELL
                                AIR SEA DIR/SP/G                  HT/PER HT/PER
                 (UTC)          (F)     (DEG/KT/KT) (MB)    (MI)  (FT/S) (FT/S)
PORT ARANSAS     1300            60 62  250/  5/  5 1009.0R
BUOY 90 E PORT A 1300            73 72  200/ 19/ 23 1008.1F         3/ 5   2/ 7
BUOY 45 SE BAFFI 1300            69 73  220/ 12/ 14 1008.6R         3/ 7   2/ 7
BUOY 200 E PT IS 1300            74 73  210/ 16/ 17 1009.8R         4/ 5
BUOY 15 E GALVES 1300            64 64  140/  8/ 10 1007.8F         2/ 4   2/ 5
$$


USA.gov is the U.S. government's official web portal to all federal, state and local government web resources and services.